CW9356 Weather Reports


time (UTC)temp
C
wind
direction
speed
KPH
gust
KPH
rain 1hr
cm
rain 24hr
cm
rain mn
cm
humidity
%
barometer
mb
20260906192115 36 180 0.0 0.0 0.00 0.00 0.00 41 1011.8
20260906190631 35 180 0.0 0.0 0.00 0.00 0.00 43 1012.0
20260906185127 35 180 0.0 0.0 0.00 0.00 0.00 42 1012.1
20260906183643 36 180 0.0 3.2 0.00 0.00 0.00 42 1012.4
20260906182120 36 180 0.0 0.0 0.00 0.00 0.00 38 1012.8
20260906180617 36 180 0.0 0.0 0.00 0.00 0.00 39 1013.1
20260906175115 36 180 0.0 0.0 0.00 0.00 0.00 38 1013.4
20260906173629 36 180 0.0 0.0 0.00 0.00 0.00 38 1013.7
20260906172144 36 180 0.0 0.0 0.00 0.00 0.00 39 1013.8
20260906170622 35 180 0.0 0.0 0.00 0.00 0.00 40 1014.0
20260906165116 34 180 0.0 0.0 0.00 0.00 0.00 41 1014.4
20260906163616 34 180 0.0 0.0 0.00 0.00 0.00 42 1014.6
20260906162129 33 180 0.0 8.0 0.00 0.00 0.00 44 1014.6
20260906160629 33 180 0.0 1.6 0.00 0.00 0.00 46 1014.6
20260906155122 32 180 0.0 1.6 0.00 0.00 0.00 48 1014.6
20260906153617 32 180 0.0 1.6 0.00 0.00 0.00 48 1014.3
20260906152155 32 180 0.0 3.2 0.00 0.00 0.00 48 1014.0
20260906150628 33 180 0.0 1.6 0.00 0.00 0.00 46 1013.8
20260906145145 32 180 0.0 0.0 0.00 0.00 0.00 48 1013.8
20260906143619 30 180 0.0 0.0 0.00 0.00 0.00 55 1013.8
20260906142116 28 180 0.0 0.0 0.00 0.00 0.00 60 1013.8
20260906140632 27 180 0.0 0.0 0.00 0.00 0.00 66 1013.8
20260906135125 26 180 0.0 0.0 0.00 0.00 0.00 69 1013.9
20260906133624 25 180 0.0 0.0 0.00 0.00 0.00 74 1013.8
20260906132118 23 180 0.0 0.0 0.00 0.00 0.00 79 1013.6
20260906130617 22 180 0.0 0.0 0.00 0.00 0.00 79 1013.4
20260906125129 22 180 0.0 0.0 0.00 0.00 0.00 79 1013.1
20260906123649 22 180 0.0 0.0 0.00 0.00 0.00 78 1013.0
20260906122121 22 180 0.0 0.0 0.00 0.00 0.00 78 1012.7
20260906120618 22 180 0.0 0.0 0.00 0.00 0.00 77 1012.4
20260906115115 22 180 0.0 0.0 0.00 0.00 0.00 77 1012.3
20260906113652 22 180 0.0 0.0 0.00 0.00 0.00 76 1012.2
20260906112128 22 180 0.0 0.0 0.00 0.00 0.00 75 1011.9
20260906110624 22 180 0.0 0.0 0.00 0.00 0.00 75 1011.9
20260906105121 22 180 0.0 0.0 0.00 0.00 0.00 75 1011.9
20260906103615 22 180 0.0 0.0 0.00 0.00 0.00 75 1011.9
20260906102129 22 180 0.0 0.0 0.00 0.00 0.00 74 1011.9
20260906100631 22 180 0.0 0.0 0.00 0.00 0.00 75 1011.9
20260906095126 22 180 0.0 0.0 0.00 0.00 0.00 73 1011.8
20260906093625 23 180 0.0 0.0 0.00 0.00 0.00 72 1011.9
20260906092118 23 180 0.0 0.0 0.00 0.00 0.00 70 1012.0
20260906090617 23 180 0.0 0.0 0.00 0.00 0.00 70 1011.8
20260906085130 24 180 0.0 0.0 0.00 0.00 0.00 68 1011.7
20260906083650 25 180 0.0 0.0 0.00 0.00 0.00 67 1011.7
20260906082122 25 180 0.0 0.0 0.00 0.00 0.00 66 1011.6
20260906080618 25 180 0.0 0.0 0.00 0.00 0.00 65 1011.8
20260906075116 25 180 0.0 0.0 0.00 0.00 0.00 64 1011.7
20260906073631 25 180 0.0 0.0 0.00 0.00 0.00 64 1011.6
20260906072128 26 180 0.0 0.0 0.00 0.00 0.00 63 1011.5
20260906070622 26 180 0.0 0.0 0.00 0.00 0.00 63 1011.4
20260906065119 26 180 0.0 0.0 0.00 0.00 0.00 63 1011.3
20260906063614 26 180 0.0 0.0 0.00 0.00 0.00 62 1011.3
20260906062128 26 180 0.0 0.0 0.00 0.00 0.00 62 1011.4
20260906060628 26 180 0.0 0.0 0.00 0.00 0.00 62 1011.4
20260906055121 26 180 0.0 0.0 0.00 0.00 0.00 61 1011.3
20260906053620 26 180 0.0 0.0 0.00 0.00 0.00 61 1011.4
20260906052115 26 180 0.0 0.0 0.00 0.00 0.00 61 1011.3
20260906050614 26 180 0.0 0.0 0.00 0.00 0.00 59 1011.3
20260906045127 27 180 0.0 0.0 0.00 0.00 0.00 58 1011.3
20260906043627 27 180 0.0 0.0 0.00 0.00 0.00 57 1011.3
20260906042120 27 180 0.0 0.0 0.00 0.00 0.00 57 1011.3
20260906040618 27 180 0.0 0.0 0.00 0.00 0.00 56 1011.2
20260906035131 28 180 0.0 0.0 0.00 0.00 0.00 53 1011.2
20260906033626 28 180 0.0 0.0 0.00 0.00 0.00 53 1011.1
20260906032123 28 180 0.0 0.0 0.00 0.00 0.00 53 1011.0
20260906030619 28 180 0.0 0.0 0.00 0.00 0.00 53 1010.8
20260906025136 29 180 0.0 0.0 0.00 0.00 0.00 51 1010.7
20260906023631 30 180 0.0 0.0 0.00 0.00 0.00 50 1010.5
20260906022129 30 180 0.0 0.0 0.00 0.00 0.00 50 1010.0
20260906020624 30 180 0.0 0.0 0.00 0.00 0.00 50 1009.8
20260906015117 30 180 0.0 0.0 0.00 0.00 0.00 49 1009.6
20260906013615 31 180 0.0 0.0 0.00 0.00 0.00 48 1009.5
20260906012130 31 180 0.0 0.0 0.00 0.00 0.00 48 1009.3
20260906010629 32 180 0.0 0.0 0.00 0.00 0.00 46 1009.4
20260906005122 32 180 0.0 0.0 0.00 0.00 0.00 44 1009.4
20260906003642 33 180 0.0 0.0 0.00 0.00 0.00 42 1009.6
20260906002133 34 180 0.0 0.0 0.00 0.00 0.00 41 1009.5
20260906000629 35 180 0.0 0.0 0.00 0.00 0.00 39 1009.6
20260905235125 35 180 0.0 0.0 0.00 0.00 0.00 38 1009.5
20260905233622 36 180 0.0 0.0 0.00 0.00 0.00 37 1009.4
20260905232118 36 180 0.0 1.6 0.00 0.00 0.00 35 1009.4
20260905230614 37 180 0.0 0.0 0.00 0.00 0.00 35 1009.6
20260905225132 37 180 0.0 1.6 0.00 0.00 0.00 34 1009.4
20260905223628 37 180 0.0 1.6 0.00 0.00 0.00 34 1009.2
20260905222124 37 180 0.0 0.0 0.00 0.00 0.00 34 1009.5
20260905220620 37 180 0.0 3.2 0.00 0.00 0.00 34 1009.4
20260905215132 37 180 0.0 17.7 0.00 0.00 0.00 33 1009.3
20260905213649 38 180 0.0 1.6 0.00 0.00 0.00 32 1009.3
20260905212122 38 180 0.0 17.7 0.00 0.00 0.00 31 1009.6
20260905210619 40 180 1.6 17.7 0.00 0.00 0.00 29 1009.6
20260905205153 40 180 3.2 16.1 0.00 0.00 0.00 30 1009.4
20260905203645 40 180 4.8 20.9 0.00 0.00 0.00 30 1009.5
20260905202141 40 180 3.2 17.7 0.00 0.00 0.00 30 1009.7
20260905200615 40 180 3.2 20.9 0.00 0.00 0.00 30 1010.0
20260905195131 40 180 1.6 9.7 0.00 0.00 0.00 30 1010.3
20260905193627 39 180 0.0 17.7 0.00 0.00 0.00 33 1010.5